STARLINK-5690, 55480

Orbit data source: Space-Track

STARLINK-5690, 55480 is a payload satellite owned by SpaceX/Seattle (US) in LEO that was launched on Thu, 02 Feb 2023 UTC via an FALCON 9 launch vehicle from the Air Force Eastern Test Range (AFETR). Payload-class satellites include a variety of spacecraft equipped with specific instruments for various scientific and technological missions. These include communications satellites like Starlink; space stations such as the ISS; scientific satellites like the Hubble; Earth observation satellites from companies like Planet Labs, Umbra, and HawkEye 360; GPS; miniature CubeSats for education and research; and military/defense satellites.

Loading next visibility...
Identifier
55480, 2023-015AH
Orbit
LEO
Country
Flag of USUS
Related business
Manufacturer
SpaceX/Seattle
Mission
Operational Commercial Communications
Bus & Motor
STARLINK, Unknown motor
Mass
305 kg wet, ~290 kg dry
Launch date (UTC)
2023-02-02 (3 years ago)
Launch vehicle
FALCON 9
Launch site
Air Force Eastern Test Range (AFETR)
Object type
Payload
Rocket body
Debris
Shape & HBR
Box + 1 Pan, 10.1 m
Radar Cross Section
13.562 m², Large (>1 m²)

Expand to show TLE details & history
Last TLE update: 15 hours ago

TLE from 15 hours ago
0 STARLINK-5690
1 55480U 23015AH  25352.25533501 -.00003677  00000-0 -25714-3 0  9991
2 55480  43.0035  61.4261 0001839 272.5144  87.5488 15.02549852158358
Epoch: 2025-12-18T06:07Z
TLE epoch observation values (Epoch: 2025-12-18T06:07:40.944Z)
Latitude
-0.00002°
Longitude
-117.60799°
Altitude
558.761 km
Speed
7.584 km/s
True Right ascension
04h 05m 42s
True Declination
0° 00' 00"
Sunlit
Object was in full shadow at epoch
Visualization orbit readout
Latitude
Unknown
Longitude
Unknown
Altitude
Unknown
Speed
Unknown
Apparent Right ascension
Unknown
Apparent Declination
Unknown
Sunlit
N/A
Visualization observer readout
Local Sidereal Time
20:07:51
Azimuth
Unknown
Elevation
Unknown
Doppler factor
Unknown
Orbital elements
Apogee altitude
562.236 km
Perigee altitude
559.684 km
Semi-major axis
6,939.097 km
Eccentricity
0.00018
Inclination
43.0035°
RAAN
61.4261°
Arg. of periapsis
272.5144°
True anomaly
87.56985°
Mean anomaly
87.5488°
Eccentric anomaly
87.55933°
Mean motion
3.75482 °/min
Orbital period
95.88 mins
BSTAR
-0.00025714
Loading maneuver chart data...
Computing Atmospheric mass density...
Loading historical data...
Loading historical data...
Loading historical data...
Loading historical data...
Loading historical data...
Loading historical data...
Loading historical data...

Documentation

Showing up to 5 results
|